When you browse on this site, cookies collect data to enhance your experience and personalize the content and advertising you see.
Visit our Privacy Policy to learn more. By continuing to use the site, you agree to this use of cookies and data.
  • In France
  • List of Countries
  • For 7 days
  • Water Temperature
  • Satellite Maps
  • Weather Map
  • Weather Widgets
  • user-avatar
    Login

    Hourly Weather Linne

    Today, 24 January, Thursday

    Time Temperature Precipitation Wind Pressure Humidity
    00:00 -8°C° 0 mm 4 mps 745 mmHg 68%
    01:00 -7°C° 0 mm 3 mps 746 mmHg 68%
    02:00 -9°C° 0 mm 4 mps 746 mmHg 68%
    03:00 -9°C° 0 mm 4 mps 746 mmHg 69%
    04:00 -9°C° 0 mm 4 mps 746 mmHg 69%
    05:00 -9°C° 0 mm 4 mps 746 mmHg 69%
    06:00 -9°C° 0 mm 4 mps 746 mmHg 70%
    07:00 -9°C° 0 mm 4 mps 747 mmHg 70%
    08:00 -9°C° 0 mm 4 mps 747 mmHg 69%
    09:00 -9°C° 0 mm 4 mps 747 mmHg 67%
    10:00 -8°C° 0 mm 5 mps 747 mmHg 66%
    11:00 -8°C° 0 mm 5 mps 747 mmHg 64%
    12:00 -8°C° 0 mm 5 mps 747 mmHg 62%
    13:00 -7°C° 0 mm 5 mps 747 mmHg 60%
    14:00 -7°C° 0 mm 5 mps 747 mmHg 60%
    15:00 -7°C° 0 mm 5 mps 747 mmHg 61%
    16:00 -7°C° 0 mm 5 mps 748 mmHg 62%
    17:00 -8°C° 0 mm 5 mps 748 mmHg 63%
    18:00 -8°C° 0 mm 5 mps 748 mmHg 64%
    19:00 -8°C° 0 mm 5 mps 748 mmHg 66%
    20:00 -8°C° 0 mm 5 mps 748 mmHg 67%
    21:00 -8°C° 0 mm 5 mps 748 mmHg 69%
    22:00 -8°C° 0 mm 5 mps 748 mmHg 70%
    23:00 -8°C° 0 mm 4 mps 748 mmHg 70%

    Tomorrow, 25 January, Friday

    Time Temperature Precipitation Wind Pressure Humidity
    00:00 -8°C° 0 mm 4 mps 748 mmHg 69%
    01:00 -8°C° 0 mm 4 mps 748 mmHg 69%
    02:00 -9°C° 0.1 mm 4 mps 748 mmHg 72%
    03:00 -9°C° 0.1 mm 4 mps 748 mmHg 75%
    04:00 -9°C° 0.1 mm 4 mps 748 mmHg 78%
    05:00 -8°C° 0.1 mm 3 mps 748 mmHg 78%
    06:00 -8°C° 0.1 mm 3 mps 748 mmHg 79%
    07:00 -8°C° 0.1 mm 3 mps 748 mmHg 80%
    08:00 -8°C° 0.1 mm 3 mps 748 mmHg 79%
    09:00 -6°C° 0.1 mm 2 mps 748 mmHg 79%
    10:00 -6°C° 0.1 mm 2 mps 748 mmHg 78%
    11:00 -4°C° 0 mm 1 mps 748 mmHg 76%
    12:00 -4°C° 0 mm 1 mps 748 mmHg 75%
    13:00 -4°C° 0 mm 0 mps 748 mmHg 73%
    14:00 -3°C° 0 mm 1 mps 748 mmHg 74%
    15:00 -5°C° 0 mm 2 mps 748 mmHg 75%
    16:00 -5°C° 0 mm 2 mps 748 mmHg 76%
    17:00 -5°C° 0 mm 2 mps 748 mmHg 77%
    18:00 -6°C° 0 mm 3 mps 748 mmHg 77%
    19:00 -6°C° 0 mm 3 mps 749 mmHg 77%
    20:00 -7°C° 0 mm 3 mps 749 mmHg 77%
    21:00 -7°C° 0 mm 3 mps 749 mmHg 77%
    22:00 -8°C° 0 mm 4 mps 749 mmHg 77%
    23:00 -8°C° 0 mm 4 mps 748 mmHg 77%

    Day after tomorrow, 26 January, Saturday

    Time Temperature Precipitation Wind Pressure Humidity
    00:00 -8°C° 0 mm 4 mps 748 mmHg 77%
    01:00 -7°C° 0 mm 3 mps 747 mmHg 77%
    02:00 -8°C° 0 mm 4 mps 747 mmHg 76%
    03:00 -8°C° 0 mm 4 mps 746 mmHg 76%
    04:00 -8°C° 0 mm 4 mps 746 mmHg 75%
    05:00 -8°C° 0.1 mm 4 mps 745 mmHg 76%
    06:00 -8°C° 0.1 mm 4 mps 744 mmHg 77%
    07:00 -8°C° 0.1 mm 5 mps 743 mmHg 78%
    08:00 -7°C° 0.7 mm 5 mps 742 mmHg 83%
    09:00 -8°C° 0.7 mm 6 mps 741 mmHg 88%
    10:00 -8°C° 0.7 mm 6 mps 741 mmHg 93%
    11:00 -6°C° 0.8 mm 6 mps 740 mmHg 93%
    12:00 -5°C° 0.8 mm 5 mps 739 mmHg 93%
    13:00 -4°C° 0.8 mm 5 mps 738 mmHg 93%
    14:00 -2°C° 0 mm 4 mps 738 mmHg 94%
    15:00 -2°C° 0 mm 4 mps 738 mmHg 95%
    16:00 -1°C° 0 mm 3 mps 738 mmHg 95%
    17:00 -1°C° 0 mm 3 mps 739 mmHg 95%
    18:00 -1°C° 0 mm 3 mps 739 mmHg 94%
    19:00 -1°C° 0 mm 3 mps 739 mmHg 94%
    20:00 -1°C° 0.2 mm 3 mps 740 mmHg 94%
    21:00 -2°C° 0.2 mm 4 mps 740 mmHg 95%
    22:00 -2°C° 0.2 mm 4 mps 740 mmHg 95%
    23:00 -1°C° 0 mm 3 mps 740 mmHg 96%

    27 January, Sunday

    Time Temperature Precipitation Wind Pressure Humidity
    00:00 -1°C° 0 mm 3 mps 740 mmHg 96%
    01:00 -1°C° 0 mm 2 mps 740 mmHg 97%
    02:00 -1°C° 0 mm 2 mps 740 mmHg 97%
    03:00 +1°C° 0 mm 1 mps 740 mmHg 97%
    04:00 0°C° 0 mm 0 mps 740 mmHg 97%
    05:00 +1°C° 0.1 mm 1 mps 740 mmHg 97%
    06:00 -1°C° 0.1 mm 2 mps 739 mmHg 97%
    07:00 -1°C° 0.1 mm 2 mps 739 mmHg 97%
    08:00 -1°C° 0.2 mm 3 mps 739 mmHg 97%
    09:00 -1°C° 0.2 mm 3 mps 739 mmHg 97%
    10:00 -1°C° 0.2 mm 4 mps 738 mmHg 97%
    11:00 0°C° 0.6 mm 3 mps 738 mmHg 98%
    12:00 0°C° 0.6 mm 3 mps 737 mmHg 99%
    13:00 0°C° 0.6 mm 3 mps 736 mmHg 99%
    14:00 0°C° 0.1 mm 3 mps 736 mmHg 99%
    15:00 0°C° 0.1 mm 3 mps 736 mmHg 99%
    16:00 0°C° 0.1 mm 3 mps 735 mmHg 98%
    17:00 0°C° 0.1 mm 3 mps 735 mmHg 97%
    18:00 0°C° 0.1 mm 3 mps 735 mmHg 96%
    19:00 0°C° 0.1 mm 3 mps 735 mmHg 95%
    20:00 0°C° 0 mm 3 mps 734 mmHg 93%
    21:00 -1°C° 0 mm 4 mps 734 mmHg 91%
    22:00 -1°C° 0 mm 4 mps 734 mmHg 90%
    23:00 -1°C° 0.1 mm 4 mps 734 mmHg 89%

    28 January, Monday

    Time Temperature Precipitation Wind Pressure Humidity
    00:00 -1°C° 0.1 mm 4 mps 734 mmHg 89%
    01:00 -1°C° 0.1 mm 4 mps 734 mmHg 89%
    02:00 -1°C° 0.3 mm 4 mps 733 mmHg 90%
    03:00 -1°C° 0.3 mm 4 mps 733 mmHg 90%
    04:00 -1°C° 0.3 mm 4 mps 732 mmHg 91%
    05:00 -1°C° 0.1 mm 4 mps 732 mmHg 92%
    06:00 -2°C° 0.1 mm 4 mps 732 mmHg 92%
    07:00 -1°C° 0.1 mm 3 mps 732 mmHg 93%
    08:00 -1°C° 0 mm 3 mps 732 mmHg 92%
    09:00 0°C° 0 mm 3 mps 732 mmHg 92%
    10:00 0°C° 0 mm 3 mps 732 mmHg 92%
    11:00 0°C° 0 mm 3 mps 732 mmHg 94%
    12:00 0°C° 0 mm 3 mps 732 mmHg 97%
    13:00 0°C° 0 mm 3 mps 732 mmHg 99%
    14:00 0°C° 0.2 mm 3 mps 732 mmHg 98%
    15:00 0°C° 0.2 mm 3 mps 732 mmHg 97%
    16:00 0°C° 0.2 mm 3 mps 732 mmHg 97%
    17:00 0°C° 0.1 mm 3 mps 732 mmHg 95%
    18:00 0°C° 0.1 mm 3 mps 732 mmHg 94%
    19:00 -1°C° 0.1 mm 3 mps 732 mmHg 93%
    20:00 0°C° 0 mm 3 mps 732 mmHg 92%
    21:00 0°C° 0 mm 3 mps 732 mmHg 91%
    22:00 -1°C° 0 mm 4 mps 732 mmHg 90%
    23:00 -1°C° 0 mm 4 mps 732 mmHg 91%

    29 January, Tuesday

    Time Temperature Precipitation Wind Pressure Humidity
    00:00 -1°C° 0 mm 4 mps 733 mmHg 92%
    01:00 -1°C° 0 mm 4 mps 733 mmHg 93%
    02:00 -1°C° 0.2 mm 5 mps 733 mmHg 94%
    03:00 -2°C° 0.2 mm 6 mps 734 mmHg 94%
    04:00 -2°C° 0.2 mm 6 mps 734 mmHg 95%
    05:00 -2°C° 0.2 mm 6 mps 735 mmHg 93%
    06:00 -2°C° 0.2 mm 6 mps 736 mmHg 92%
    07:00 -2°C° 0.2 mm 7 mps 737 mmHg 91%
    08:00 -3°C° 0.2 mm 7 mps 738 mmHg 89%
    09:00 -3°C° 0.2 mm 7 mps 739 mmHg 87%
    10:00 -3°C° 0.2 mm 7 mps 740 mmHg 85%
    11:00 -3°C° 0 mm 6 mps 740 mmHg 84%
    12:00 -3°C° 0 mm 6 mps 741 mmHg 82%
    13:00 -2°C° 0 mm 5 mps 741 mmHg 80%
    14:00 -2°C° 0 mm 5 mps 741 mmHg 82%
    15:00 -2°C° 0 mm 5 mps 742 mmHg 84%
    16:00 -2°C° 0 mm 4 mps 742 mmHg 86%
    17:00 -2°C° 0 mm 4 mps 742 mmHg 86%
    18:00 -2°C° 0 mm 4 mps 742 mmHg 87%
    19:00 -3°C° 0 mm 4 mps 742 mmHg 87%
    20:00 -3°C° 0 mm 4 mps 742 mmHg 87%
    21:00 -3°C° 0 mm 4 mps 742 mmHg 87%
    22:00 -3°C° 0 mm 4 mps 743 mmHg 87%
    23:00 -3°C° 0 mm 4 mps 742 mmHg 86%
    Show more